Date String (YYYY-MM-DD hh:mm:ss) UTC,Instrument flags,Ambient pressure (hPa),Sample flow (lpm),Bypass flow (lpm),Sample temperature (°C),Ambient temperature (°C),ASC tube jacket temperature (°C),LED temperature (°C),Box temperature (°C),Sample RH (%),Span deviation,Mass concentration (μg/m³),Mass concentration (μg/m³),Mass concentration (μg/m³)
DateTimeUTC,F1_M11,P_M11,Q1_M11,Q2_M11,T1_M11,T2_M11,T3_M11,T4_M11,T5_M11,U1_M11,ZSPAN_M11,X0_M11,X2_M11,X1_M11
2022-10-09 13:00:00,,0832.8,5.00,0.00,26.9,25.3,00.0,35.7,28.8,16.7,0001.3,0009.57,0006.29,0005.93
2022-10-09 13:01:00,,0832.8,5.01,0.00,26.9,25.3,00.0,35.7,28.7,16.5,0001.7,0009.85,0006.40,0006.04
2022-10-09 13:02:00,,0832.9,4.99,0.00,26.9,25.3,00.0,35.7,28.7,16.2,0001.6,0011.72,0006.46,0006.09
2022-10-09 13:03:00,,0832.8,5.01,0.00,26.9,25.4,00.0,35.7,28.7,16.4,0001.9,0012.07,0006.53,0006.13
2022-10-09 13:04:00,,0832.9,4.99,0.00,26.9,25.4,00.0,35.7,28.7,16.5,0001.8,0012.16,0006.58,0006.17
2022-10-09 13:05:00,,0832.9,4.99,0.00,26.9,25.4,00.0,35.7,28.8,17.1,0001.8,0012.33,0006.68,0006.27
2022-10-09 13:06:00,,0832.9,5.00,0.00,26.9,25.4,00.0,35.7,28.8,17.4,0001.2,0012.72,0006.84,0006.38
2022-10-09 13:07:00,,0832.9,5.01,0.00,26.9,25.4,00.0,35.7,28.8,17.4,0000.7,0012.98,0006.99,0006.47
2022-10-09 13:08:00,,0833.0,4.99,0.00,26.9,25.4,00.0,35.7,28.8,17.5,0000.1,0012.95,0007.09,0006.55
2022-10-09 13:09:00,,0833.0,4.99,0.00,26.9,25.3,00.0,35.7,28.8,17.5,0000.1,0012.88,0007.21,0006.68
2022-10-09 13:10:00,,0833.0,5.00,0.00,26.9,25.4,00.0,35.7,28.8,17.4,0000.1,0013.15,0007.34,0006.81
2022-10-09 13:11:00,,0833.1,4.99,0.00,26.9,25.3,00.0,35.7,28.8,17.4,0000.4,0013.26,0007.41,0006.88
2022-10-09 13:12:00,,0833.0,5.01,0.00,26.9,25.3,00.0,35.7,28.7,17.4,0000.4,0013.49,0007.50,0006.94
2022-10-09 13:13:00,,0833.1,4.99,0.00,26.9,25.3,00.0,35.7,28.8,17.3,0000.6,0011.98,0007.59,0007.03
2022-10-09 13:14:00,,0833.1,5.00,0.00,26.9,25.3,00.0,35.7,28.8,17.3,0000.8,0011.41,0007.64,0007.10
2022-10-09 13:15:00,,0833.0,5.00,0.00,26.9,25.3,00.0,35.7,28.8,17.1,0000.8,0011.52,0007.66,0007.15
2022-10-09 13:16:00,,0833.1,5.00,0.00,26.9,25.3,00.0,35.7,28.7,17.1,0001.1,0011.73,0007.68,0007.14
2022-10-09 13:17:00,,0833.0,5.02,0.00,26.9,25.3,00.0,35.7,28.7,17.1,0001.1,0011.46,0007.60,0007.09
2022-10-09 13:18:00,,0833.0,4.99,0.00,26.9,25.3,00.0,35.7,28.7,17.2,0001.6,0011.59,0007.51,0007.04
2022-10-09 13:19:00,,0833.1,5.00,0.00,26.9,25.3,00.0,35.7,28.7,17.1,0001.7,0011.37,0007.46,0006.99
2022-10-09 13:20:00,,0833.0,5.00,0.00,26.9,25.3,00.0,35.7,28.7,17.4,0001.4,0011.32,0007.45,0006.95
2022-10-09 13:21:00,,0833.0,5.00,0.00,26.9,25.2,00.0,35.7,28.7,17.5,0001.5,0011.34,0007.49,0006.95
2022-10-09 13:22:00,,0833.0,5.01,0.00,26.9,25.2,00.0,35.7,28.7,17.5,0001.5,0011.35,0007.49,0006.94
2022-10-09 13:23:00,,0833.0,5.00,0.00,26.8,25.2,00.0,35.7,28.7,17.5,0001.7,0011.40,0007.48,0006.93
2022-10-09 13:24:00,,0833.0,5.01,0.00,26.8,25.2,00.0,35.6,28.7,17.4,0002.1,0012.16,0007.45,0006.92
2022-10-09 13:25:00,,0833.0,5.00,0.00,26.8,25.2,00.0,35.6,28.7,17.4,0002.0,0012.38,0007.48,0006.91
2022-10-09 13:26:00,,0833.0,5.00,0.00,26.8,25.2,00.0,35.7,28.7,17.4,0001.8,0012.27,0007.51,0006.94
2022-10-09 13:27:00,,0833.0,5.00,0.00,26.8,25.2,00.0,35.6,28.7,17.3,0001.5,0012.03,0007.49,0006.96
2022-10-09 13:28:00,,0833.0,4.99,0.00,26.8,25.2,00.0,35.6,28.7,17.4,0001.7,0012.11,0007.51,0006.97
2022-10-09 13:29:00,,0833.0,5.00,0.00,26.8,25.2,00.0,35.6,28.7,17.3,0001.7,0011.83,0007.51,0006.97
2022-10-09 13:30:00,,0833.0,5.01,0.00,26.8,25.2,00.0,35.6,28.7,17.2,0001.8,0011.74,0007.47,0006.95
2022-10-09 13:31:00,,0833.0,5.00,0.00,26.8,25.2,00.0,35.6,28.7,17.2,0002.4,0011.67,0007.41,0006.89
2022-10-09 13:32:00,,0833.0,5.01,0.00,26.8,25.2,00.0,35.6,28.7,17.1,0002.4,0011.36,0007.26,0006.80
2022-10-09 13:33:00,,0833.1,4.99,0.00,26.8,25.2,00.0,35.6,28.7,17.1,0002.1,0011.26,0007.17,0006.73
2022-10-09 13:34:00,,0833.0,4.99,0.00,26.8,25.2,00.0,35.6,28.6,17.1,0002.1,0010.99,0007.09,0006.67
2022-10-09 13:35:00,,0833.1,5.01,0.00,26.8,25.3,00.0,35.6,28.7,17.2,0002.1,0010.13,0007.02,0006.61
2022-10-09 13:36:00,,0833.1,4.98,0.00,26.8,25.2,00.0,35.6,28.7,17.2,0002.2,0009.80,0006.94,0006.55
2022-10-09 13:37:00,,0833.1,5.00,0.00,26.8,25.2,00.0,35.6,28.7,17.2,0002.4,0009.86,0006.85,0006.48
2022-10-09 13:38:00,,0833.1,5.00,0.00,26.8,25.2,00.0,35.6,28.7,17.2,0002.5,0010.32,0006.82,0006.43
2022-10-09 13:39:00,,0833.1,4.99,0.00,26.8,25.2,00.0,35.6,28.7,17.3,0002.4,0010.26,0006.78,0006.39
2022-10-09 13:40:00,,0833.1,5.01,0.00,26.8,25.2,00.0,35.6,28.7,17.3,0001.8,0010.17,0006.73,0006.35
2022-10-09 13:41:00,,0833.1,4.99,0.00,26.8,25.2,00.0,35.6,28.7,17.2,0001.8,0010.14,0006.71,0006.33
2022-10-09 13:42:00,,0833.1,5.00,0.00,26.8,25.3,00.0,35.6,28.7,17.1,0001.3,0010.14,0006.71,0006.33
2022-10-09 13:43:00,,0833.1,5.01,0.00,26.8,25.3,00.0,35.6,28.7,17.1,0001.1,0010.16,0006.72,0006.33
2022-10-09 13:44:00,,0833.2,4.99,0.00,26.8,25.3,00.0,35.6,28.7,17.0,0001.2,0010.18,0006.71,0006.31
2022-10-09 13:45:00,,0833.2,5.01,0.00,26.8,25.3,00.0,35.6,28.7,17.0,0000.5,0010.31,0006.71,0006.29
2022-10-09 13:46:00,,0833.1,4.99,0.00,26.8,25.3,00.0,35.6,28.7,16.9,0000.0,0010.17,0006.70,0006.27
2022-10-09 13:47:00,,0833.2,4.99,0.00,26.8,25.3,00.0,35.6,28.7,16.9,-000.1,0010.13,0006.67,0006.24
2022-10-09 13:48:00,,0833.1,5.01,0.00,26.8,25.3,00.0,35.6,28.7,16.9,-000.4,0009.95,0006.65,0006.21
2022-10-09 13:49:00,,0833.2,4.99,0.00,26.8,25.3,00.0,35.6,28.7,16.9,-000.6,0009.68,0006.67,0006.19
2022-10-09 13:50:00,,0833.2,5.00,0.00,26.8,25.3,00.0,35.6,28.7,17.0,-000.6,0009.68,0006.65,0006.16
2022-10-09 13:51:00,,0833.2,5.01,0.00,26.8,25.3,00.0,35.6,28.7,17.0,-000.2,0009.73,0006.65,0006.13
2022-10-09 13:52:00,,0833.2,4.99,0.00,26.8,25.3,00.0,35.6,28.7,17.1,-000.2,0009.75,0006.65,0006.11
2022-10-09 13:53:00,,0833.2,5.00,0.00,26.8,25.4,00.0,35.6,28.7,17.0,-000.4,0009.82,0006.65,0006.09
2022-10-09 13:54:00,,0833.3,5.00,0.00,26.8,25.4,00.0,35.6,28.7,17.1,-000.3,0009.82,0006.63,0006.06
2022-10-09 13:55:00,,0833.3,4.99,0.00,26.8,25.4,00.0,35.6,28.7,17.1,-000.5,0009.77,0006.60,0006.05
2022-10-09 13:56:00,,0833.3,4.99,0.00,26.8,25.4,00.0,35.6,28.7,17.1,-000.4,0010.01,0006.59,0006.05
2022-10-09 13:57:00,,0833.3,5.00,0.00,26.8,25.4,00.0,35.6,28.7,17.3,-000.6,0010.01,0006.55,0006.02
2022-10-09 13:58:00,,0833.2,5.00,0.00,26.8,25.4,00.0,35.6,28.8,17.6,-000.5,0010.07,0006.55,0006.00
2022-10-09 13:59:00,,0833.3,5.00,0.00,26.8,25.4,00.0,35.6,28.8,17.4,0000.0,0010.07,0006.55,0006.00
